When you browse on this site, cookies collect data to enhance your experience and personalize the content and advertising you see.
Visit our Privacy Policy to learn more. By continuing to use the site, you agree to this use of cookies and data.
  • In Schweiz
  • Länderverzeichnis
  • Für 7 Tage
  • Wassertemperatur
  • Satellitenkarten
  • Wetterkarte
  • Widgets
  • user-avatar
    Anmelden

    Stündliche Wetter São Luís

    Heute, 24 Januar, Donnerstag

    Zeit Temperatur Niederschläge Wind Luftdruck Luftfeuchtigkeit
    00:00 +28°C° 0 mm 4 m/S 759 mmHg 84%
    01:00 +28°C° 0 mm 4 m/S 758 mmHg 85%
    02:00 +28°C° 0 mm 4 m/S 758 mmHg 87%
    03:00 +27°C° 0 mm 3 m/S 758 mmHg 88%
    04:00 +27°C° 0.2 mm 3 m/S 758 mmHg 88%
    05:00 +27°C° 0.2 mm 3 m/S 758 mmHg 89%
    06:00 +27°C° 0.2 mm 3 m/S 758 mmHg 89%
    07:00 +28°C° 0.4 mm 3 m/S 759 mmHg 87%
    08:00 +29°C° 0.4 mm 3 m/S 759 mmHg 85%
    09:00 +29°C° 0.4 mm 3 m/S 759 mmHg 83%
    10:00 +30°C° 0.3 mm 3 m/S 759 mmHg 79%
    11:00 +31°C° 0.3 mm 3 m/S 759 mmHg 75%
    12:00 +31°C° 0.3 mm 3 m/S 759 mmHg 71%
    13:00 +33°C° 0 mm 3 m/S 758 mmHg 69%
    14:00 +33°C° 0 mm 3 m/S 758 mmHg 66%
    15:00 +34°C° 0 mm 4 m/S 757 mmHg 63%
    16:00 +32°C° 0 mm 4 m/S 757 mmHg 68%
    17:00 +30°C° 0 mm 3 m/S 757 mmHg 74%
    18:00 +29°C° 0 mm 3 m/S 757 mmHg 79%
    19:00 +29°C° 0.1 mm 3 m/S 758 mmHg 81%
    20:00 +28°C° 0.1 mm 3 m/S 758 mmHg 84%
    21:00 +28°C° 0.1 mm 3 m/S 759 mmHg 86%
    22:00 +28°C° 0.9 mm 3 m/S 759 mmHg 88%
    23:00 +27°C° 0.9 mm 2 m/S 759 mmHg 90%

    Morgen, 25 Januar, Freitag

    Zeit Temperatur Niederschläge Wind Luftdruck Luftfeuchtigkeit
    00:00 +27°C° 0.9 mm 2 m/S 759 mmHg 92%
    01:00 +27°C° 1.4 mm 2 m/S 759 mmHg 92%
    02:00 +27°C° 1.4 mm 2 m/S 758 mmHg 92%
    03:00 +26°C° 1.4 mm 1 m/S 758 mmHg 92%
    04:00 +26°C° 0.6 mm 2 m/S 758 mmHg 92%
    05:00 +26°C° 0.6 mm 2 m/S 758 mmHg 92%
    06:00 +26°C° 0.6 mm 2 m/S 758 mmHg 92%
    07:00 +27°C° 0 mm 2 m/S 758 mmHg 89%
    08:00 +28°C° 0 mm 2 m/S 759 mmHg 86%
    09:00 +28°C° 0 mm 3 m/S 759 mmHg 84%
    10:00 +30°C° 0 mm 2 m/S 759 mmHg 77%
    11:00 +31°C° 0 mm 2 m/S 759 mmHg 70%
    12:00 +32°C° 0 mm 2 m/S 759 mmHg 63%
    13:00 +33°C° 0 mm 3 m/S 758 mmHg 62%
    14:00 +33°C° 0 mm 3 m/S 757 mmHg 62%
    15:00 +34°C° 0 mm 4 m/S 757 mmHg 61%
    16:00 +31°C° 0.3 mm 3 m/S 757 mmHg 69%
    17:00 +30°C° 0.3 mm 3 m/S 757 mmHg 76%
    18:00 +28°C° 0.3 mm 3 m/S 757 mmHg 84%
    19:00 +28°C° 0.3 mm 3 m/S 758 mmHg 86%
    20:00 +28°C° 0.3 mm 3 m/S 758 mmHg 88%
    21:00 +27°C° 0.3 mm 3 m/S 759 mmHg 90%
    22:00 +27°C° 0.5 mm 3 m/S 759 mmHg 90%
    23:00 +27°C° 0.5 mm 3 m/S 759 mmHg 91%

    übermorgen, 26 Januar, Samstag

    Zeit Temperatur Niederschläge Wind Luftdruck Luftfeuchtigkeit
    00:00 +27°C° 0.5 mm 3 m/S 759 mmHg 92%
    01:00 +27°C° 1.6 mm 3 m/S 759 mmHg 91%
    02:00 +27°C° 1.6 mm 3 m/S 758 mmHg 91%
    03:00 +26°C° 1.6 mm 3 m/S 758 mmHg 91%
    04:00 +26°C° 1.4 mm 3 m/S 758 mmHg 92%
    05:00 +26°C° 1.4 mm 2 m/S 758 mmHg 92%
    06:00 +26°C° 1.4 mm 2 m/S 758 mmHg 92%
    07:00 +27°C° 0 mm 2 m/S 759 mmHg 88%
    08:00 +28°C° 0 mm 2 m/S 759 mmHg 83%
    09:00 +29°C° 0 mm 2 m/S 760 mmHg 79%
    10:00 +30°C° 0 mm 3 m/S 760 mmHg 73%
    11:00 +31°C° 0 mm 3 m/S 759 mmHg 67%
    12:00 +33°C° 0 mm 3 m/S 759 mmHg 61%
    13:00 +33°C° 0.1 mm 3 m/S 758 mmHg 63%
    14:00 +33°C° 0.1 mm 3 m/S 757 mmHg 64%
    15:00 +33°C° 0.1 mm 4 m/S 756 mmHg 66%
    16:00 +32°C° 0.7 mm 4 m/S 757 mmHg 72%
    17:00 +29°C° 0.7 mm 4 m/S 757 mmHg 79%
    18:00 +28°C° 0.7 mm 3 m/S 757 mmHg 85%
    19:00 +28°C° 0 mm 4 m/S 757 mmHg 85%
    20:00 +28°C° 0 mm 4 m/S 758 mmHg 86%
    21:00 +28°C° 0 mm 4 m/S 758 mmHg 86%
    22:00 +28°C° 0 mm 4 m/S 758 mmHg 86%
    23:00 +28°C° 0 mm 3 m/S 758 mmHg 85%

    27 Januar, Sonntag

    Zeit Temperatur Niederschläge Wind Luftdruck Luftfeuchtigkeit
    00:00 +28°C° 0 mm 3 m/S 758 mmHg 85%
    01:00 +28°C° 0 mm 3 m/S 758 mmHg 86%
    02:00 +27°C° 0 mm 3 m/S 757 mmHg 86%
    03:00 +27°C° 0 mm 3 m/S 757 mmHg 87%
    04:00 +27°C° 0 mm 3 m/S 757 mmHg 88%
    05:00 +27°C° 0 mm 3 m/S 757 mmHg 89%
    06:00 +27°C° 0 mm 3 m/S 757 mmHg 89%
    07:00 +28°C° 0.2 mm 3 m/S 758 mmHg 85%
    08:00 +29°C° 0.2 mm 4 m/S 759 mmHg 81%
    09:00 +30°C° 0.2 mm 4 m/S 759 mmHg 76%
    10:00 +32°C° 0.4 mm 4 m/S 759 mmHg 74%
    11:00 +32°C° 0.4 mm 4 m/S 759 mmHg 72%
    12:00 +33°C° 0.4 mm 4 m/S 758 mmHg 70%
    13:00 +33°C° 0.3 mm 4 m/S 758 mmHg 68%
    14:00 +33°C° 0.3 mm 5 m/S 757 mmHg 67%
    15:00 +33°C° 0.3 mm 5 m/S 757 mmHg 66%
    16:00 +32°C° 0 mm 5 m/S 757 mmHg 70%
    17:00 +30°C° 0 mm 5 m/S 757 mmHg 73%
    18:00 +29°C° 0 mm 5 m/S 757 mmHg 77%
    19:00 +29°C° 0 mm 5 m/S 758 mmHg 78%
    20:00 +29°C° 0 mm 5 m/S 758 mmHg 79%
    21:00 +29°C° 0 mm 5 m/S 759 mmHg 81%
    22:00 +29°C° 0 mm 5 m/S 759 mmHg 81%
    23:00 +29°C° 0 mm 5 m/S 758 mmHg 81%

    28 Januar, Montag

    Zeit Temperatur Niederschläge Wind Luftdruck Luftfeuchtigkeit
    00:00 +29°C° 0 mm 5 m/S 758 mmHg 81%
    01:00 +28°C° 0 mm 5 m/S 758 mmHg 82%
    02:00 +28°C° 0 mm 4 m/S 757 mmHg 82%
    03:00 +28°C° 0 mm 4 m/S 757 mmHg 83%
    04:00 +28°C° 0 mm 4 m/S 757 mmHg 83%
    05:00 +28°C° 0 mm 4 m/S 757 mmHg 84%
    06:00 +28°C° 0 mm 4 m/S 758 mmHg 84%
    07:00 +29°C° 0 mm 4 m/S 758 mmHg 80%
    08:00 +30°C° 0 mm 5 m/S 758 mmHg 76%
    09:00 +32°C° 0 mm 5 m/S 759 mmHg 72%
    10:00 +33°C° 0 mm 5 m/S 758 mmHg 69%
    11:00 +33°C° 0 mm 4 m/S 758 mmHg 66%
    12:00 +34°C° 0 mm 4 m/S 758 mmHg 63%
    13:00 +34°C° 0.1 mm 4 m/S 757 mmHg 63%
    14:00 +34°C° 0.1 mm 5 m/S 756 mmHg 63%
    15:00 +34°C° 0.1 mm 5 m/S 756 mmHg 63%
    16:00 +33°C° 0.1 mm 5 m/S 756 mmHg 68%
    17:00 +32°C° 0.1 mm 5 m/S 756 mmHg 72%
    18:00 +30°C° 0.1 mm 5 m/S 756 mmHg 77%
    19:00 +30°C° 0 mm 5 m/S 757 mmHg 77%
    20:00 +29°C° 0 mm 5 m/S 757 mmHg 78%
    21:00 +29°C° 0 mm 5 m/S 758 mmHg 79%
    22:00 +29°C° 0 mm 5 m/S 758 mmHg 79%
    23:00 +29°C° 0 mm 5 m/S 758 mmHg 80%

    29 Januar, Dienstag

    Zeit Temperatur Niederschläge Wind Luftdruck Luftfeuchtigkeit
    00:00 +29°C° 0 mm 5 m/S 758 mmHg 81%
    01:00 +29°C° 0.7 mm 5 m/S 757 mmHg 83%
    02:00 +28°C° 0.7 mm 5 m/S 757 mmHg 85%
    03:00 +28°C° 0.7 mm 5 m/S 756 mmHg 88%
    04:00 +28°C° 0.8 mm 5 m/S 757 mmHg 89%
    05:00 +27°C° 0.8 mm 4 m/S 757 mmHg 89%
    06:00 +27°C° 0.8 mm 4 m/S 757 mmHg 90%
    07:00 +28°C° 0.1 mm 4 m/S 757 mmHg 85%
    08:00 +29°C° 0.1 mm 4 m/S 758 mmHg 81%
    09:00 +32°C° 0.1 mm 5 m/S 758 mmHg 77%
    10:00 +33°C° 0 mm 5 m/S 758 mmHg 71%
    11:00 +34°C° 0 mm 5 m/S 758 mmHg 66%
    12:00 +35°C° 0 mm 5 m/S 757 mmHg 60%
    13:00 +34°C° 0.3 mm 5 m/S 757 mmHg 63%
    14:00 +34°C° 0.3 mm 5 m/S 756 mmHg 66%
    15:00 +33°C° 0.3 mm 5 m/S 755 mmHg 69%
    16:00 +33°C° 0.6 mm 5 m/S 755 mmHg 72%
    17:00 +32°C° 0.6 mm 5 m/S 756 mmHg 76%
    18:00 +30°C° 0.6 mm 4 m/S 756 mmHg 80%
    19:00 +29°C° 0 mm 5 m/S 756 mmHg 80%
    20:00 +29°C° 0 mm 5 m/S 757 mmHg 81%
    21:00 +29°C° 0 mm 5 m/S 757 mmHg 82%
    22:00 +29°C° 0 mm 5 m/S 757 mmHg 82%
    23:00 +29°C° 0 mm 5 m/S 757 mmHg 82%
    Mehr zeigen